Flag for Netherlands Weather past 2 weeks in Ede, Netherlands

Now
52 °F

Passing clouds.


Feels Like: 52 °F
Forecast: 37 / 62 °F
Wind: 1 mph from Northwest

Location: Deelen

Current Time: Apr 19, 2015 at 1:07:04 PM

Latest Report: Apr 19, 2015 at 12:25 PM


Visibility: N/A

Pressure: 30.18 "Hg

Humidity: 54%

Dew point: 36 °F

Location of EdeLocation

Historic Weather in Ede — Graph

°F

Ede temperature yesterday

Maximum temperature yesterday: 59 °F (at 3:55 PM)
Minimum temperature yesterday: 37 °F (at 5:25 AM)
Average temperature yesterday: 48 °F

Past Weeks' High & Low Weather Summary

 TemperatureHumidityPressure
High73 °F (Apr 15, 3:55 PM)100% (Apr 5, 5:25 AM)30.60 "Hg (Apr 5, 5:25 AM)
Low25 °F (Apr 5, 5:25 AM)31% (Apr 15, 4:55 PM)29.92 "Hg (Apr 11, 3:55 AM)
Average48 °F71%30.25 "Hg
* Reported Apr 4 11:25 AM — Apr 19 11:55 AM, Ede, Weather by CustomWeather, © 2015

Note: Actual official high and low records may vary slightly from our data, if they occured in-between our weather recording intervals... More about our weather records

Advertising

Ede weather history for previous 24 hours

 ConditionsComfort  
Time TempWeatherWind HumidityBarometerVisibility
11:55 AM
Sun, Apr 19
50 °FPassing clouds.3 mph62%30.18 "HgN/A
11:25 AM48 °FScattered clouds.2 mph71%30.18 "HgN/A
10:55 AM46 °FPartly sunny.2 mph71%30.18 "HgN/A
10:25 AM46 °FOvercast.2 mph71%30.18 "HgN/A
9:55 AM43 °FQuite cool.1 mph81%30.18 "HgN/A
9:25 AM41 °FOvercast.1 mph87%30.18 "HgN/A
8:55 AM37 °FOvercast.1 mph93%30.21 "HgN/A
8:25 AM34 °FPassing clouds.1 mph93%30.21 "HgN/A
7:55 AM30 °FPartly sunny.1 mph93%30.21 "HgN/A
7:25 AM30 °FPassing clouds.No wind93%30.21 "HgN/A
6:55 AM28 °FIce fog.1 mph93%30.21 "Hg6 mi
6:25 AM28 °FIce fog.1 mph93%30.21 "Hg5 mi
5:55 AM28 °FPassing clouds.No wind100%30.21 "HgN/A
5:25 AM30 °FPassing clouds.1 mph93%30.21 "HgN/A
4:55 AM30 °FIce fog.No wind93%30.21 "Hg6 mi
4:25 AM30 °FClear.1 mph93%30.24 "HgN/A
3:55 AM32 °FIce fog.1 mph87%30.24 "Hg5 mi
3:25 AM34 °FPassing clouds.1 mph93%30.24 "HgN/A
2:55 AM34 °FFog.2 mph93%30.24 "Hg6 mi
2:25 AM36 °FPassing clouds.2 mph93%30.27 "HgN/A
1:55 AM37 °FChilly.3 mph93%30.27 "HgN/A
1:25 AM39 °FPassing clouds.5 mph87%30.27 "HgN/A
12:55 AM39 °FPassing clouds.5 mph87%30.30 "HgN/A
12:25 AM41 °FPassing clouds.7 mph87%30.30 "HgN/A
11:55 PM
Sat, Apr 18
41 °FPassing clouds.7 mph87%30.30 "HgN/A
10:55 PM45 °FQuite cool.9 mph76%30.30 "HgN/A
10:25 PM45 °FPassing clouds.9 mph76%30.30 "HgN/A
9:55 PM46 °FPassing clouds.12 mph66%30.30 "HgN/A
9:25 PM48 °FCool.9 mph58%30.30 "HgN/A
8:55 PM50 °FCool.14 mph54%30.30 "HgN/A
8:25 PM52 °FCool.14 mph54%30.27 "HgN/A
7:55 PM54 °FPassing clouds.10 mph44%30.27 "HgN/A
7:25 PM55 °FClear.12 mph41%30.27 "HgN/A
6:55 PM57 °FRefreshingly cool.12 mph39%30.27 "HgN/A
6:25 PM57 °FScattered clouds.14 mph41%30.27 "HgN/A
5:55 PM59 °FPassing clouds.12 mph34%30.30 "HgN/A
5:25 PM57 °FPassing clouds.12 mph39%30.30 "HgN/A
4:55 PM59 °FScattered clouds.14 mph36%30.30 "HgN/A
4:25 PM59 °FPassing clouds.10 mph39%30.30 "HgN/A
3:55 PM59 °FScattered clouds.14 mph39%30.33 "HgN/A
3:25 PM57 °FPartly sunny.14 mph39%30.33 "HgN/A
2:55 PM57 °FPassing clouds.12 mph41%30.33 "HgN/A
2:25 PM55 °FPartly sunny.13 mph41%30.33 "HgN/A
1:55 PM55 °FPartly sunny.14 mph44%30.36 "HgN/A
1:25 PM55 °FPartly sunny.17 mph44%30.36 "HgN/A
Weather by CustomWeather, © 2015

See weather overviewHow to use our weather pages